Wind_Speed
25 25 25 25 25 25 25 24 24 23 23 22 20 19 18 18 18 18 18 18 18 18 17 17 17 18 18 19 19 19 19 19 19 19 20 20 19 19 20 20 21 21 21 21
27 27 27 26 26 26 25 25 25 25 25 24 23 22 21 20 20 20 19 19 19 19 18 18 19 19 20 20 20 19 19 19 20 20 20 20 21 21 21 21 21 22 22 22
30 29 28 27 25 25 25 25 26 26 25 26 26 25 24 23 22 21 21 21 21 20 20 20 21 21 21 21 20 20 20 20 20 20 20 21 22 22 22 22 22 22 23 22
31 30 31 27 26 27 28 28 28 27 27 27 27 26 26 25 24 23 23 23 22 22 22 22 22 22 21 21 21 21 21 21 21 21 21 22 23 23 23 23 23 23 23 23
33 33 32 31 29 28 29 29 29 29 29 29 28 28 27 26 26 24 23 24 23 23 23 23 23 22 22 22 22 22 22 22 23 24 23 24 24 24 24 24 24 24 24 24
34 34 34 32 31 31 31 31 30 30 30 30 30 29 28 27 27 26 24 25 25 24 24 25 24 23 24 24 24 23 24 24 25 25 25 25 25 25 25 25 25 24 24 24
34 34 34 33 32 32 32 32 30 30 29 29 29 29 29 29 28 27 26 26 26 26 26 26 26 26 25 25 25 25 26 26 26 27 26 26 26 26 26 25 25 25 25 24
34 34 33 32 33 33 32 32 31 30 29 28 28 28 28 29 29 29 28 28 28 28 28 28 28 28 27 26 27 28 28 28 27 27 27 27 26 26 26 25 25 25 25 25
34 33 32 31 32 31 32 31 30 29 29 28 28 29 29 29 29 28 29 28 28 29 29 30 30 30 29 28 28 29 29 28 28 28 28 28 27 27 27 26 25 26 26 26
35 34 33 32 31 31 32 31 30 30 29 29 29 30 29 29 29 29 30 30 29 29 30 30 30 30 30 30 30 30 30 30 29 28 27 27 27 27 27 26 26 26 26 26
34 33 32 32 32 32 32 31 31 31 30 30 30 30 30 30 30 30 31 31 31 30 30 30 30 30 30 30 29 29 30 30 30 29 27 27 27 27 27 27 27 27 27 26
32 32 33 32 32 32 32 32 32 32 31 31 31 31 31 31 31 31 31 31 31 30 30 30 30 30 30 29 29 30 30 29 30 29 28 27 27 27 28 27 27 27 27 27
32 32 32 32 32 33 33 33 32 32 32 32 31 31 31 32 32 31 31 31 31 30 30 30 30 30 29 29 29 29 29 29 29 28 27 27 27 27 27 27 27 27 27 27
32 32 32 32 32 33 33 32 32 32 33 33 32 32 32 32 32 31 30 29 29 29 29 29 28 29 29 29 30 30 29 30 30 28 27 27 27 27 27 27 27 27 27 28
31 31 31 31 31 32 32 32 32 31 31 31 31 31 31 31 30 29 29 29 29 28 28 27 27 28 29 29 28 28 28 28 27 27 27 28 28 27 27 27 27 27 28 28
29 29 29 29 29 30 30 30 30 30 30 30 30 30 30 30 29 28 28 29 28 28 28 27 27 28 28 28 26 26 26 27 27 28 28 28 28 28 27 27 28 28 28 28
28 28 28 28 28 27 28 29 29 29 29 29 29 29 29 28 28 27 28 28 28 28 28 28 28 28 28 28 27 26 27 27 27 28 28 28 28 27 27 27 27 28 28 28
27 26 26 26 25 26 27 27 27 27 27 27 28 27 27 27 28 28 29 29 29 29 29 29 28 27 28 28 27 27 27 27 27 28 28 28 28 28 27 27 27 27 27 27
26 26 26 26 26 26 26 26 26 26 27 27 26 26 26 26 27 28 29 29 29 29 28 28 28 28 28 28 28 27 27 27 28 28 28 28 28 28 28 27 27 27 27 27
26 26 26 26 26 26 25 26 26 26 26 25 26 25 25 26 27 28 29 29 28 28 27 27 27 27 27 27 27 26 26 26 27 27 28 28 28 28 27 27 27 27 27 27
25 25 25 25 25 25 25 25 25 25 26 26 26 26 26 27 27 28 28 28 27 27 27 27 26 26 26 26 27 26 26 26 27 27 27 28 28 27 27 27 27 27 27 27
23 24 24 24 24 24 24 24 24 24 24 25 25 25 25 25 25 26 26 26 25 26 27 26 26 26 26 26 26 25 26 26 27 26 27 28 27 28 28 27 27 26 26 26
23 23 23 23 23 23 23 23 23 23 24 24 24 25 25 25 25 25 24 24 24 24 25 25 25 25 25 25 25 25 25 26 26 26 26 27 27 27 26 26 26 26 26 27
23 23 23 23 22 23 23 23 23 23 23 24 24 24 24 23 23 23 23 23 22 23 23 23 24 24 24 24 25 25 25 25 25 25 26 26 26 25 25 25 25 25 25 25
22 22 22 22 21 21 21 22 22 22 22 22 22 22 22 22 21 21 21 21 21 21 22 22 22 23 23 24 25 25 24 24 23 24 24 24 23 23 23 24 24 23 22 22
20 20 20 20 20 20 21 21 20 20 20 20 20 21 21 20 20 20 20 20 20 20 20 20 20 22 23 24 24 23 23 22 22 22 22 22 22 22 22 22 22 22 22 22
18 18 18 19 19 19 19 19 19 19 19 19 19 18 18 18 19 19 20 20 20 19 19 19 20 21 21 21 21 21 21 22 22 22 21 21 21 21 21 21 21 22 21 21
Wind_Direction
259 261 262 265 265 263 265 269 272 274 276 277 276 275 274 274 274 276 279 280 281 282 284 285 286 288 287 289 290 289 289 289 289 289 290 291 292 293 293 293 292 292 292 291
259 262 264 265 264 264 266 270 272 273 274 276 276 276 276 276 275 275 276 276 278 279 283 285 285 285 286 287 287 286 287 287 287 286 286 289 290 292 294 293 292 293 290 290
260 262 263 263 264 264 266 270 272 273 274 275 275 276 274 273 274 274 273 275 278 279 282 284 284 285 287 288 286 285 285 285 284 284 285 288 290 291 292 292 292 291 292 290
260 261 261 265 264 263 266 269 272 272 273 275 276 275 273 273 274 275 275 276 280 282 283 284 285 285 287 287 284 284 285 284 283 282 283 285 287 288 289 290 290 291 291 291
258 260 262 263 265 265 266 267 270 271 273 273 273 273 272 273 274 274 275 274 274 277 280 281 282 284 285 285 284 283 284 283 283 283 283 284 285 286 287 289 290 290 291 291
257 260 262 264 265 266 267 268 269 271 271 270 269 270 271 272 272 271 272 272 271 273 277 279 278 280 282 284 284 283 282 283 283 285 285 285 285 286 288 288 288 289 289 290
256 259 262 264 265 266 268 271 272 271 269 268 269 269 270 270 270 270 271 271 272 274 276 277 279 279 280 282 283 284 284 285 285 285 284 284 284 285 286 286 287 288 289 289
256 257 261 263 265 266 269 269 270 269 269 268 268 269 269 270 270 269 270 272 273 274 275 276 278 279 281 282 285 286 286 285 284 284 283 283 284 285 285 284 286 288 288 289
257 259 260 262 264 266 267 267 268 268 268 268 268 268 270 270 271 270 270 271 273 274 275 276 277 278 279 282 284 285 286 284 283 282 281 282 285 285 286 285 286 287 287 288
257 258 259 260 261 263 266 266 266 267 266 267 267 267 269 270 271 272 272 273 275 277 277 279 279 279 281 282 283 284 286 288 287 285 284 284 284 285 285 285 287 288 288 288
259 258 258 259 260 262 264 263 263 265 266 267 267 267 268 270 271 271 273 273 273 274 275 276 278 280 281 282 284 286 287 288 288 286 284 284 284 284 285 285 286 289 290 289
258 259 258 259 259 261 262 263 264 265 266 267 267 268 267 269 270 271 272 273 273 273 275 277 278 279 280 281 282 283 285 285 284 283 284 283 284 284 284 285 287 288 290 290
258 259 260 259 259 260 261 263 264 265 266 267 267 268 270 269 270 272 273 274 275 275 277 278 278 278 279 279 280 282 284 285 283 282 284 284 285 285 285 286 287 288 288 290
257 258 260 259 260 261 263 264 264 265 266 267 267 268 269 269 270 272 274 275 276 276 277 278 277 277 279 280 280 281 282 283 284 283 283 284 286 286 286 286 287 287 288 290
257 258 260 260 261 261 262 263 264 266 266 266 266 267 269 269 269 271 274 274 275 276 275 276 276 277 279 281 281 281 281 282 283 283 284 285 285 286 286 286 287 288 288 289
256 258 259 260 261 262 261 262 262 264 264 264 265 267 268 269 270 270 272 274 275 277 276 275 276 278 280 281 280 279 280 281 281 282 283 285 286 287 286 285 286 287 287 288
257 259 259 259 260 261 260 260 260 261 263 264 265 266 267 267 268 269 271 273 275 276 277 275 276 278 279 280 279 278 278 279 280 281 283 285 287 287 287 286 286 287 287 288
256 257 256 258 259 261 262 262 261 262 262 263 264 265 267 268 268 268 270 271 274 276 277 277 275 276 277 278 277 278 279 279 279 280 281 283 284 285 286 286 286 287 288 290
255 255 256 258 260 262 262 263 261 260 261 263 265 266 267 268 269 271 272 272 273 274 275 276 274 273 275 277 277 278 280 279 279 280 281 282 283 284 284 285 286 287 288 289
255 257 259 259 260 260 261 261 262 261 263 264 265 265 267 270 271 272 272 272 273 273 273 274 274 273 274 277 277 278 279 280 281 281 281 282 283 283 284 284 285 287 287 288
257 258 260 261 260 261 262 263 264 265 266 266 267 267 269 271 273 274 272 270 270 271 272 274 276 275 275 276 278 277 278 280 281 281 280 280 281 282 283 284 285 286 287 287
260 262 262 263 262 262 263 264 264 265 267 267 267 268 270 272 274 275 272 270 270 271 271 272 274 274 276 278 281 280 280 282 282 281 280 279 280 282 283 284 284 285 285 285
263 265 265 264 262 261 262 263 264 266 267 268 269 269 271 272 274 274 271 269 269 269 270 272 273 275 276 278 281 283 285 286 283 281 280 282 284 284 284 284 284 284 285 286
263 264 265 264 263 262 261 262 266 268 268 269 269 269 271 272 273 272 269 267 268 270 271 272 274 275 276 278 281 283 286 287 285 282 282 285 285 286 287 286 286 286 287 287
262 263 264 264 265 265 265 265 266 267 269 271 271 270 270 271 272 273 271 269 270 271 273 274 274 276 278 280 283 285 285 285 285 284 282 282 285 287 287 288 287 286 286 287
261 260 263 264 265 266 267 267 267 268 269 270 271 270 269 269 271 272 272 271 270 272 274 275 278 281 283 285 285 285 285 285 286 285 283 283 285 287 287 287 287 287 288 289
261 261 264 264 264 265 266 265 265 266 267 268 269 269 270 271 272 272 272 270 270 273 275 277 279 284 288 288 287 286 285 283 283 283 283 285 285 286 287 287 287 288 290 292
Height
5851 5853 5853 5854 5855 5855 5855 5856 5856 5857 5857 5857 5857 5858 5858 5858 5857 5857 5856 5856 5855 5854 5854 5853 5852 5851 5849 5848 5846 5845 5844 5842 5841 5840 5838 5837 5836 5835 5833 5832 5830 5828 5827 5826
5844 5846 5846 5847 5848 5849 5849 5850 5850 5851 5851 5852 5852 5852 5852 5852 5852 5852 5851 5850 5849 5849 5848 5847 5846 5845 5844 5843 5841 5839 5838 5837 5836 5835 5833 5832 5831 5830 5828 5826 5824 5823 5821 5820
5837 5839 5839 5840 5842 5843 5843 5843 5844 5844 5846 5845 5846 5846 5846 5846 5846 5845 5845 5844 5843 5843 5842 5841 5840 5839 5838 5837 5835 5834 5832 5831 5830 5829 5828 5826 5825 5823 5822 5821 5819 5818 5816 5814
5830 5832 5832 5836 5835 5836 5836 5837 5837 5838 5838 5838 5839 5839 5838 5839 5839 5839 5839 5838 5837 5836 5836 5835 5834 5833 5831 5830 5829 5828 5827 5825 5824 5823 5821 5820 5819 5817 5816 5815 5813 5812 5810 5809
5822 5823 5824 5827 5828 5829 5829 5829 5830 5830 5831 5831 5831 5831 5832 5832 5832 5833 5832 5831 5831 5830 5829 5829 5828 5827 5825 5824 5822 5821 5820 5819 5817 5816 5815 5813 5812 5811 5809 5808 5807 5805 5804 5802
5813 5814 5816 5820 5820 5820 5822 5821 5823 5823 5823 5823 5823 5824 5825 5825 5825 5825 5825 5824 5824 5823 5822 5821 5820 5819 5818 5817 5815 5813 5812 5811 5810 5809 5807 5806 5805 5804 5802 5801 5800 5798 5797 5795
5804 5805 5807 5810 5811 5812 5814 5815 5815 5814 5814 5814 5815 5816 5817 5817 5817 5817 5817 5817 5816 5815 5814 5813 5813 5811 5810 5809 5807 5806 5804 5804 5803 5801 5800 5799 5797 5796 5795 5794 5792 5791 5790 5788
5796 5797 5801 5801 5802 5804 5804 5805 5805 5805 5806 5807 5807 5807 5808 5808 5809 5809 5808 5808 5808 5807 5807 5806 5805 5804 5802 5801 5800 5798 5797 5796 5795 5794 5793 5791 5790 5789 5788 5786 5785 5784 5782 5780
5788 5791 5791 5792 5793 5794 5795 5795 5796 5797 5798 5798 5799 5799 5800 5800 5800 5800 5800 5800 5799 5799 5799 5798 5797 5796 5794 5793 5792 5791 5789 5788 5787 5786 5785 5784 5782 5781 5780 5778 5777 5775 5774 5772
5778 5780 5782 5783 5783 5784 5785 5786 5787 5788 5789 5790 5790 5791 5791 5791 5792 5792 5791 5791 5791 5790 5790 5789 5789 5788 5786 5785 5784 5783 5782 5781 5779 5778 5776 5775 5774 5772 5772 5771 5769 5767 5765 5764
5768 5770 5772 5774 5775 5776 5776 5777 5778 5779 5780 5781 5781 5782 5783 5783 5783 5783 5783 5783 5783 5782 5782 5781 5780 5779 5778 5777 5775 5774 5773 5773 5771 5770 5768 5767 5766 5765 5764 5763 5761 5759 5757 5755
5759 5761 5763 5765 5766 5767 5768 5769 5770 5771 5771 5772 5772 5773 5773 5773 5774 5774 5774 5774 5773 5773 5772 5772 5771 5770 5769 5768 5767 5766 5765 5764 5763 5762 5760 5759 5758 5757 5755 5754 5753 5751 5749 5747
5750 5751 5753 5755 5756 5757 5759 5760 5760 5761 5762 5762 5763 5763 5764 5764 5764 5764 5764 5764 5764 5763 5763 5762 5762 5761 5760 5759 5759 5758 5757 5755 5754 5753 5751 5750 5750 5748 5747 5746 5744 5742 5741 5739
5740 5742 5744 5745 5746 5748 5749 5750 5751 5751 5752 5753 5753 5753 5754 5754 5755 5755 5755 5755 5755 5754 5754 5753 5753 5752 5751 5750 5749 5749 5748 5747 5746 5744 5743 5742 5741 5740 5739 5737 5736 5734 5732 5731
5732 5734 5735 5736 5737 5738 5739 5740 5741 5741 5742 5743 5743 5744 5744 5744 5745 5745 5746 5746 5746 5745 5745 5744 5744 5743 5742 5741 5740 5739 5739 5738 5737 5736 5735 5734 5733 5732 5730 5729 5727 5726 5724 5723
5723 5725 5726 5728 5729 5729 5730 5731 5732 5732 5733 5733 5734 5734 5734 5735 5735 5736 5736 5736 5736 5736 5736 5735 5735 5734 5734 5733 5732 5731 5730 5729 5729 5728 5726 5725 5724 5723 5722 5720 5719 5717 5716 5714
5715 5717 5718 5720 5720 5721 5722 5722 5723 5723 5724 5724 5724 5725 5726 5726 5727 5727 5727 5727 5727 5727 5727 5727 5726 5726 5725 5724 5724 5723 5722 5721 5720 5719 5718 5717 5716 5714 5713 5711 5710 5709 5707 5705
5708 5709 5710 5711 5712 5713 5713 5714 5714 5715 5715 5716 5716 5717 5717 5718 5718 5718 5718 5718 5718 5718 5718 5718 5717 5717 5716 5716 5715 5714 5713 5712 5711 5710 5709 5708 5707 5706 5704 5703 5701 5700 5699 5697
5700 5702 5703 5703 5704 5705 5705 5706 5706 5707 5707 5708 5708 5709 5709 5709 5709 5709 5710 5709 5710 5710 5710 5709 5709 5708 5708 5707 5706 5705 5704 5703 5702 5701 5700 5699 5698 5697 5695 5694 5693 5692 5690 5688
5693 5694 5695 5696 5696 5697 5697 5698 5698 5699 5699 5700 5700 5700 5700 5700 5700 5700 5700 5700 5700 5701 5701 5700 5700 5700 5699 5698 5697 5697 5696 5695 5693 5692 5691 5690 5689 5688 5687 5686 5685 5683 5682 5680
5685 5687 5687 5688 5689 5689 5689 5690 5690 5691 5692 5692 5692 5692 5692 5692 5691 5691 5691 5691 5692 5692 5692 5692 5692 5692 5691 5690 5689 5688 5687 5686 5685 5684 5683 5682 5680 5679 5678 5677 5676 5675 5674 5672
5679 5679 5680 5680 5681 5681 5682 5682 5683 5683 5683 5683 5684 5684 5683 5683 5683 5682 5682 5683 5683 5683 5683 5683 5683 5683 5683 5682 5681 5680 5679 5678 5677 5675 5674 5673 5671 5671 5670 5669 5668 5667 5665 5664
5672 5672 5673 5673 5673 5674 5674 5675 5675 5675 5675 5675 5675 5675 5675 5675 5674 5674 5674 5675 5674 5675 5675 5675 5675 5675 5675 5674 5673 5673 5672 5670 5669 5667 5666 5664 5663 5662 5661 5660 5659 5658 5657 5655
5664 5665 5665 5666 5666 5666 5667 5667 5667 5668 5668 5668 5668 5667 5667 5667 5667 5666 5666 5666 5666 5667 5667 5668 5667 5667 5667 5667 5666 5665 5664 5662 5660 5659 5658 5657 5655 5654 5653 5652 5651 5650 5648 5647
5657 5657 5658 5658 5658 5658 5659 5659 5660 5660 5660 5660 5660 5660 5660 5660 5660 5659 5659 5659 5659 5660 5660 5660 5660 5660 5660 5659 5658 5657 5656 5654 5653 5652 5650 5649 5648 5647 5646 5645 5643 5642 5641 5639
5650 5651 5651 5651 5652 5652 5652 5652 5653 5653 5653 5653 5653 5653 5653 5653 5653 5652 5652 5652 5652 5653 5653 5653 5653 5653 5652 5651 5650 5649 5648 5647 5646 5644 5643 5642 5641 5640 5639 5637 5636 5635 5634 5632
5644 5644 5645 5645 5645 5645 5646 5646 5646 5646 5647 5647 5647 5647 5646 5646 5646 5646 5646 5646 5646 5646 5646 5646 5646 5646 5645 5643 5643 5642 5641 5640 5639 5638 5637 5635 5634 5633 5632 5631 5629 5628 5626 5625